Location: Songkhla
(7.2000°N, 100.6000°E)
Time: 04:59:06
(UTC+07:00)

First-Move - Pass Details

Date: 02 August 2021
Orbit: 576 x 665 km, 97.6° (Epoch: 15 September)

Event Time Altitude Azimuth Distance (km) Brightness Sun altitude
Rises 03:45:23 0° 42° (NE) 2,973 ? -34.4°
Reaches altitude 10° 03:48:31 10° 66° (ENE) 2,072 ? -33.7°
Maximum altitude 03:51:02 15° 100° (E) 1,780 ? -33.1°
Enters shadow 03:53:13 11° 130° (SE) 2,013 ? -32.6°
